TimeEST,TemperatureF,Dew PointF,Humidity,Sea Level PressureIn,VisibilityMPH,Wind Direction,Wind SpeedMPH,Gust SpeedMPH,PrecipitationIn,Events,Conditions,WindDirDegrees,DateUTC
12:17 AM,15.8,8.6,73,30.09,10.0,NW,4.6,-,N/A,,Scattered Clouds,320,2001-01-01 05:17:00
12:37 AM,15.8,8.6,73,30.09,10.0,NNW,4.6,-,N/A,,Clear,340,2001-01-01 05:37:00
12:57 AM,15.8,8.6,73,30.08,10.0,NW,6.9,-,N/A,,Clear,310,2001-01-01 05:57:00
1:17 AM,15.8,8.6,73,30.08,10.0,NW,3.5,-,N/A,,Clear,310,2001-01-01 06:17:00
1:37 AM,15.8,8.6,73,30.09,10.0,West,6.9,-,N/A,,Clear,280,2001-01-01 06:37:00
1:57 AM,15.8,8.6,73,30.09,10.0,West,10.4,-,N/A,,Clear,280,2001-01-01 06:57:00
2:17 AM,15.8,8.6,73,30.09,10.0,WNW,4.6,-,N/A,,Clear,300,2001-01-01 07:17:00
2:37 AM,15.8,8.6,73,30.10,10.0,Calm,Calm,-,N/A,,Clear,0,2001-01-01 07:37:00
2:57 AM,15.8,8.6,73,30.10,10.0,Calm,Calm,-,N/A,,Clear,0,2001-01-01 07:57:00
3:17 AM,14.0,8.6,79,30.11,10.0,Calm,Calm,-,N/A,,Clear,0,2001-01-01 08:17:00
3:37 AM,15.8,10.4,79,30.10,10.0,Calm,Calm,-,N/A,,Clear,0,2001-01-01 08:37:00
3:57 AM,15.8,10.4,79,30.10,10.0,West,6.9,-,N/A,,Clear,280,2001-01-01 08:57:00
4:17 AM,14.0,8.6,79,30.11,10.0,West,6.9,-,N/A,,Clear,280,2001-01-01 09:17:00
4:37 AM,15.8,8.6,73,30.11,10.0,WNW,9.2,-,N/A,,Clear,290,2001-01-01 09:37:00
4:57 AM,14.0,8.6,79,30.12,10.0,West,9.2,-,N/A,,Scattered Clouds,280,2001-01-01 09:57:00
5:17 AM,15.8,10.4,79,30.12,10.0,WNW,4.6,-,N/A,,Mostly Cloudy,290,2001-01-01 10:17:00
5:37 AM,15.8,10.4,79,30.13,10.0,Calm,Calm,-,N/A,,Overcast,0,2001-01-01 10:37:00
5:57 AM,15.8,10.4,79,30.14,10.0,WNW,3.5,-,N/A,,Overcast,300,2001-01-01 10:57:00
6:17 AM,15.8,8.6,73,30.14,10.0,WNW,4.6,16.1,N/A,,Overcast,290,2001-01-01 11:17:00
6:37 AM,15.8,8.6,73,30.14,10.0,NNW,11.5,-,N/A,,Mostly Cloudy,330,2001-01-01 11:37:00
6:57 AM,15.8,8.6,73,30.15,10.0,NNW,3.5,-,N/A,,Mostly Cloudy,340,2001-01-01 11:57:00
7:17 AM,15.8,10.4,79,30.14,10.0,North,5.8,-,N/A,,Overcast,350,2001-01-01 12:17:00
7:37 AM,15.8,8.6,73,30.14,10.0,North,3.5,-,N/A,,Scattered Clouds,0,2001-01-01 12:37:00
7:57 AM,15.8,8.6,73,30.14,10.0,North,5.8,-,N/A,,Scattered Clouds,350,2001-01-01 12:57:00
8:17 AM,17.6,8.6,68,30.14,10.0,North,4.6,-,N/A,,Clear,350,2001-01-01 13:17:00
8:37 AM,17.6,10.4,73,30.14,10.0,North,5.8,-,N/A,,Clear,0,2001-01-01 13:37:00
8:57 AM,17.6,10.4,73,30.14,10.0,North,3.5,-,N/A,,Clear,10,2001-01-01 13:57:00
9:17 AM,17.6,10.4,73,30.14,10.0,North,5.8,-,N/A,,Scattered Clouds,350,2001-01-01 14:17:00
9:37 AM,19.4,10.4,68,30.14,10.0,North,3.5,-,N/A,,Scattered Clouds,350,2001-01-01 14:37:00
9:57 AM,19.4,10.4,68,30.13,10.0,North,5.8,-,N/A,,Clear,0,2001-01-01 14:57:00
10:17 AM,19.4,10.4,68,30.13,10.0,North,4.6,-,N/A,,Clear,350,2001-01-01 15:17:00
10:37 AM,19.4,10.4,68,30.13,10.0,Calm,Calm,-,N/A,,Clear,0,2001-01-01 15:37:00
10:57 AM,21.2,10.4,63,30.12,10.0,NE,3.5,-,N/A,,Clear,40,2001-01-01 15:57:00
11:17 AM,21.2,10.4,63,30.11,10.0,Calm,Calm,-,N/A,,Clear,0,2001-01-01 16:17:00
11:37 AM,21.2,10.4,63,30.10,10.0,Calm,Calm,-,N/A,,Scattered Clouds,0,2001-01-01 16:37:00
11:57 AM,23.0,10.4,59,30.09,10.0,Calm,Calm,-,N/A,,Scattered Clouds,0,2001-01-01 16:57:00
12:17 PM,26.6,12.2,55,30.08,10.0,East,4.6,-,N/A,,Scattered Clouds,100,2001-01-01 17:17:00
12:37 PM,26.6,10.4,51,30.07,10.0,North,3.5,-,N/A,,Mostly Cloudy,10,2001-01-01 17:37:00
12:57 PM,26.6,8.6,47,30.06,10.0,NNE,3.5,-,N/A,,Overcast,20,2001-01-01 17:57:00
1:17 PM,26.6,8.6,47,30.05,10.0,Calm,Calm,-,N/A,,Overcast,0,2001-01-01 18:17:00
1:37 PM,28.4,12.2,51,30.05,10.0,ENE,3.5,-,N/A,,Mostly Cloudy,60,2001-01-01 18:37:00
1:57 PM,28.4,10.4,47,30.04,10.0,Calm,Calm,-,N/A,,Mostly Cloudy,0,2001-01-01 18:57:00
2:17 PM,28.4,10.4,47,30.05,10.0,NNW,3.5,-,N/A,,Mostly Cloudy,340,2001-01-01 19:17:00
2:37 PM,28.4,10.4,47,30.05,10.0,NNE,3.5,-,N/A,,Overcast,20,2001-01-01 19:37:00
2:57 PM,28.4,12.2,51,30.05,10.0,Calm,Calm,-,N/A,,Overcast,0,2001-01-01 19:57:00
3:17 PM,26.6,10.4,51,30.06,10.0,WNW,5.8,-,N/A,,Overcast,300,2001-01-01 20:17:00
3:37 PM,24.8,15.8,69,30.06,2.5,NNW,4.6,-,0.00,Snow,Light Snow,330,2001-01-01 20:37:00
3:57 PM,23.0,17.6,80,30.08,2.5,North,5.8,-,0.00,Snow,Light Snow,0,2001-01-01 20:57:00
4:17 PM,23.0,17.6,80,30.08,4.0,North,4.6,-,0.00,Snow,Light Snow,10,2001-01-01 21:17:00
4:37 PM,23.0,17.6,80,30.08,5.0,North,3.5,-,0.00,Snow,Light Snow,0,2001-01-01 21:37:00
4:57 PM,21.2,17.6,86,30.09,5.0,NNE,3.5,-,N/A,,Haze,20,2001-01-01 21:57:00
5:17 PM,21.2,15.8,80,30.09,5.0,North,3.5,-,N/A,,Haze,10,2001-01-01 22:17:00
5:37 PM,21.2,15.8,80,30.10,5.0,Calm,Calm,-,0.00,Snow,Light Snow,0,2001-01-01 22:37:00
5:57 PM,21.2,15.8,80,30.10,10.0,North,3.5,-,N/A,,Overcast,350,2001-01-01 22:57:00
6:17 PM,21.2,14.0,74,30.11,10.0,NNW,5.8,-,N/A,,Overcast,340,2001-01-01 23:17:00
6:37 PM,19.4,14.0,80,30.11,5.0,NNW,3.5,-,0.00,Snow,Light Snow,330,2001-01-01 23:37:00
6:57 PM,19.4,14.0,80,30.11,5.0,NW,6.9,-,0.00,Snow,Light Snow,320,2001-01-01 23:57:00
7:17 PM,19.4,14.0,80,30.12,4.0,NW,5.8,-,0.00,Snow,Light Snow,320,2001-01-02 00:17:00
7:37 PM,19.4,12.2,74,30.12,7.0,NNW,5.8,-,0.00,Snow,Light Snow,340,2001-01-02 00:37:00
7:57 PM,19.4,14.0,80,30.13,3.0,NNW,6.9,-,0.00,Snow,Light Snow,330,2001-01-02 00:57:00
8:17 PM,19.4,14.0,80,30.13,4.0,NNW,6.9,-,0.00,Snow,Light Snow,330,2001-01-02 01:17:00
8:37 PM,19.4,14.0,80,30.13,4.0,NW,4.6,-,0.00,Snow,Light Snow,310,2001-01-02 01:37:00
8:57 PM,19.4,12.2,74,30.13,4.0,NW,8.1,-,0.00,Snow,Light Snow,320,2001-01-02 01:57:00
9:17 PM,19.4,12.2,74,30.14,5.0,WNW,10.4,-,0.00,Snow,Light Snow,290,2001-01-02 02:17:00
9:37 PM,19.4,12.2,74,30.14,7.0,NW,9.2,-,0.00,Snow,Light Snow,310,2001-01-02 02:37:00
9:57 PM,19.4,12.2,74,30.14,4.0,NNW,6.9,-,0.00,Snow,Light Snow,330,2001-01-02 02:57:00
10:17 PM,19.4,12.2,74,30.14,5.0,NW,11.5,18.4,0.00,Snow,Light Snow,320,2001-01-02 03:17:00
10:37 PM,19.4,12.2,74,30.14,7.0,NW,11.5,18.4,N/A,,Overcast,320,2001-01-02 03:37:00
10:57 PM,19.4,10.4,68,30.15,10.0,NW,9.2,-,N/A,,Mostly Cloudy,310,2001-01-02 03:57:00
11:17 PM,17.6,10.4,73,30.15,10.0,NW,12.7,18.4,N/A,,Clear,320,2001-01-02 04:17:00
11:37 PM,17.6,10.4,73,30.15,10.0,NW,13.8,19.6,N/A,,Clear,320,2001-01-02 04:37:00
11:57 PM,17.6,10.4,73,30.15,10.0,NW,11.5,-,N/A,,Mostly Cloudy,320,2001-01-02 04:57:00